QPF
0.00 0.00 0.00 0.00 0.00 0.00 0.00 0.00 0.00 0.00 0.00 0.00 0.00 0.00 0.00 0.00 0.00 0.00 0.00 0.00 0.00 0.00 0.00 0.00 0.00 0.00 0.00 0.00 0.00 0.00 0.00 0.00 0.00 0.00 0.00 0.00 0.00 0.00 0.00 0.00 0.00 0.00 0.00 0.00
0.00 0.00 0.00 0.00 0.00 0.00 0.00 0.00 0.00 0.00 0.00 0.00 0.00 0.00 0.00 0.00 0.00 0.00 0.00 0.00 0.00 0.00 0.00 0.00 0.00 0.00 0.00 0.00 0.00 0.00 0.00 0.00 0.00 0.00 0.00 0.00 0.00 0.00 0.00 0.00 0.00 0.00 0.00 0.00
0.00 0.00 0.00 0.00 0.00 0.00 0.00 0.00 0.00 0.00 0.00 0.00 0.00 0.00 0.00 0.00 0.00 0.00 0.00 0.00 0.00 0.00 0.00 0.00 0.00 0.00 0.00 0.00 0.00 0.00 0.00 0.00 0.00 0.00 0.00 0.00 0.00 0.00 0.00 0.00 0.00 0.00 0.00 0.00
0.00 0.00 0.00 0.00 0.00 0.00 0.00 0.00 0.00 0.00 0.00 0.00 0.00 0.00 0.00 0.00 0.00 0.00 0.00 0.00 0.00 0.00 0.00 0.00 0.00 0.00 0.00 0.00 0.00 0.00 0.00 0.00 0.00 0.00 0.00 0.00 0.00 0.00 0.00 0.00 0.00 0.00 0.00 0.00
0.00 0.00 0.00 0.00 0.00 0.00 0.00 0.00 0.00 0.00 0.00 0.00 0.00 0.00 0.00 0.00 0.00 0.00 0.00 0.00 0.00 0.00 0.00 0.00 0.00 0.00 0.00 0.00 0.00 0.00 0.00 0.00 0.00 0.00 0.00 0.00 0.00 0.00 0.00 0.00 0.00 0.00 0.00 0.00
0.00 0.00 0.00 0.00 0.00 0.00 0.00 0.00 0.00 0.00 0.00 0.00 0.00 0.00 0.00 0.00 0.00 0.00 0.00 0.00 0.00 0.00 0.00 0.00 0.00 0.00 0.00 0.00 0.00 0.00 0.00 0.00 0.00 0.00 0.00 0.00 0.00 0.00 0.00 0.00 0.00 0.00 0.00 0.00
0.00 0.00 0.00 0.00 0.00 0.00 0.00 0.00 0.00 0.00 0.00 0.00 0.00 0.00 0.00 0.00 0.00 0.00 0.00 0.00 0.00 0.00 0.00 0.00 0.00 0.00 0.00 0.00 0.00 0.00 0.00 0.00 0.00 0.00 0.00 0.00 0.00 0.00 0.00 0.00 0.00 0.00 0.00 0.00
0.00 0.00 0.00 0.00 0.00 0.00 0.00 0.00 0.00 0.00 0.00 0.00 0.00 0.00 0.00 0.00 0.00 0.00 0.00 0.00 0.00 0.00 0.00 0.00 0.00 0.00 0.00 0.00 0.00 0.00 0.00 0.00 0.00 0.00 0.00 0.00 0.00 0.00 0.00 0.00 0.00 0.00 0.00 0.00
0.00 0.00 0.00 0.00 0.00 0.00 0.00 0.00 0.00 0.00 0.00 0.00 0.00 0.00 0.00 0.00 0.00 0.00 0.00 0.00 0.00 0.00 0.00 0.00 0.00 0.00 0.00 0.00 0.00 0.00 0.00 0.00 0.00 0.00 0.00 0.00 0.00 0.00 0.00 0.00 0.00 0.00 0.00 0.00
0.00 0.00 0.00 0.00 0.00 0.00 0.00 0.00 0.00 0.00 0.00 0.00 0.00 0.00 0.00 0.00 0.00 0.00 0.00 0.00 0.00 0.00 0.00 0.00 0.00 0.00 0.00 0.00 0.00 0.00 0.00 0.00 0.00 0.00 0.00 0.00 0.00 0.00 0.00 0.00 0.00 0.00 0.00 0.00
0.00 0.00 0.00 0.00 0.00 0.00 0.00 0.00 0.00 0.00 0.00 0.00 0.00 0.00 0.00 0.00 0.00 0.00 0.00 0.00 0.00 0.00 0.00 0.00 0.00 0.00 0.00 0.00 0.00 0.00 0.00 0.00 0.00 0.00 0.00 0.00 0.00 0.00 0.00 0.00 0.00 0.00 0.00 0.00
0.00 0.00 0.00 0.00 0.00 0.00 0.00 0.00 0.00 0.00 0.00 0.00 0.00 0.00 0.00 0.00 0.00 0.00 0.00 0.00 0.00 0.00 0.00 0.00 0.00 0.00 0.00 0.00 0.00 0.00 0.00 0.00 0.00 0.00 0.00 0.00 0.00 0.00 0.00 0.00 0.00 0.00 0.00 0.00
0.00 0.00 0.00 0.00 0.00 0.00 0.00 0.00 0.00 0.00 0.00 0.00 0.00 0.00 0.00 0.00 0.00 0.00 0.00 0.00 0.00 0.00 0.00 0.00 0.00 0.00 0.00 0.00 0.00 0.00 0.00 0.00 0.00 0.00 0.00 0.00 0.00 0.00 0.00 0.00 0.00 0.00 0.00 0.00
0.00 0.00 0.00 0.00 0.00 0.00 0.00 0.00 0.00 0.00 0.00 0.00 0.00 0.00 0.00 0.00 0.00 0.00 0.00 0.00 0.00 0.00 0.00 0.00 0.00 0.00 0.00 0.00 0.00 0.00 0.00 0.00 0.00 0.00 0.00 0.00 0.00 0.00 0.00 0.00 0.00 0.00 0.00 0.00
0.00 0.00 0.00 0.00 0.00 0.00 0.00 0.00 0.00 0.00 0.00 0.00 0.00 0.00 0.00 0.00 0.00 0.00 0.00 0.00 0.00 0.00 0.00 0.00 0.00 0.00 0.00 0.00 0.00 0.00 0.00 0.00 0.00 0.00 0.00 0.00 0.00 0.00 0.00 0.00 0.00 0.00 0.00 0.00
0.00 0.00 0.00 0.00 0.00 0.00 0.00 0.00 0.00 0.00 0.00 0.00 0.00 0.00 0.00 0.00 0.00 0.00 0.00 0.00 0.00 0.00 0.00 0.00 0.00 0.00 0.00 0.00 0.00 0.00 0.00 0.00 0.00 0.00 0.00 0.00 0.00 0.00 0.00 0.00 0.00 0.00 0.00 0.00
0.00 0.00 0.00 0.00 0.00 0.00 0.00 0.00 0.00 0.00 0.00 0.00 0.00 0.00 0.00 0.00 0.00 0.00 0.00 0.00 0.00 0.00 0.00 0.00 0.00 0.00 0.00 0.00 0.00 0.00 0.00 0.00 0.00 0.00 0.00 0.00 0.00 0.00 0.00 0.00 0.00 0.00 0.00 0.00
0.00 0.00 0.00 0.00 0.00 0.00 0.00 0.00 0.00 0.00 0.00 0.00 0.00 0.00 0.00 0.00 0.00 0.00 0.00 0.00 0.00 0.00 0.00 0.00 0.00 0.00 0.00 0.00 0.00 0.00 0.00 0.00 0.00 0.00 0.00 0.00 0.00 0.00 0.00 0.00 0.00 0.00 0.00 0.00
0.00 0.00 0.00 0.00 0.00 0.00 0.00 0.00 0.00 0.00 0.00 0.00 0.00 0.00 0.00 0.00 0.00 0.00 0.00 0.00 0.00 0.00 0.00 0.00 0.00 0.00 0.00 0.00 0.00 0.00 0.00 0.00 0.00 0.00 0.00 0.00 0.00 0.00 0.00 0.00 0.00 0.00 0.00 0.00
0.00 0.00 0.00 0.00 0.00 0.00 0.00 0.00 0.00 0.00 0.00 0.00 0.00 0.00 0.00 0.00 0.00 0.00 0.00 0.00 0.00 0.00 0.00 0.00 0.00 0.00 0.00 0.00 0.00 0.00 0.00 0.00 0.00 0.00 0.00 0.00 0.00 0.00 0.00 0.00 0.00 0.00 0.00 0.00
0.00 0.00 0.00 0.00 0.00 0.00 0.00 0.00 0.00 0.00 0.00 0.00 0.00 0.00 0.00 0.00 0.00 0.00 0.00 0.00 0.00 0.00 0.00 0.00 0.00 0.00 0.00 0.00 0.00 0.00 0.00 0.00 0.00 0.00 0.00 0.00 0.00 0.00 0.00 0.00 0.00 0.00 0.00 0.00
0.00 0.00 0.00 0.00 0.00 0.00 0.00 0.00 0.00 0.00 0.00 0.00 0.00 0.00 0.00 0.00 0.00 0.00 0.00 0.00 0.00 0.00 0.00 0.00 0.00 0.00 0.00 0.00 0.00 0.00 0.00 0.00 0.00 0.00 0.00 0.00 0.00 0.00 0.00 0.00 0.00 0.00 0.00 0.00
0.00 0.00 0.00 0.00 0.00 0.00 0.00 0.00 0.00 0.00 0.00 0.00 0.00 0.00 0.00 0.00 0.00 0.00 0.00 0.00 0.00 0.00 0.00 0.00 0.00 0.00 0.00 0.00 0.00 0.00 0.00 0.00 0.00 0.00 0.00 0.00 0.00 0.00 0.00 0.00 0.00 0.00 0.00 0.00
0.00 0.00 0.00 0.00 0.00 0.00 0.00 0.00 0.00 0.00 0.00 0.00 0.00 0.00 0.00 0.00 0.00 0.00 0.00 0.00 0.00 0.00 0.00 0.00 0.00 0.00 0.00 0.00 0.00 0.00 0.00 0.00 0.00 0.00 0.00 0.00 0.00 0.00 0.00 0.00 0.00 0.00 0.00 0.00
0.00 0.00 0.00 0.00 0.00 0.00 0.00 0.00 0.00 0.00 0.00 0.00 0.00 0.00 0.00 0.00 0.00 0.00 0.00 0.00 0.00 0.00 0.00 0.00 0.00 0.00 0.00 0.00 0.00 0.00 0.00 0.00 0.00 0.00 0.00 0.00 0.00 0.00 0.00 0.00 0.00 0.00 0.00 0.00
0.00 0.00 0.00 0.00 0.00 0.00 0.00 0.00 0.00 0.00 0.00 0.00 0.00 0.00 0.00 0.00 0.00 0.00 0.00 0.00 0.00 0.00 0.00 0.00 0.00 0.00 0.00 0.00 0.00 0.00 0.00 0.00 0.00 0.00 0.00 0.00 0.00 0.00 0.00 0.00 0.00 0.00 0.00 0.00
0.00 0.00 0.00 0.00 0.00 0.00 0.00 0.00 0.00 0.00 0.00 0.00 0.00 0.00 0.00 0.00 0.00 0.00 0.00 0.00 0.00 0.00 0.00 0.00 0.00 0.00 0.00 0.00 0.00 0.00 0.00 0.00 0.00 0.00 0.00 0.00 0.00 0.00 0.00 0.00 0.00 0.00 0.00 0.00
MSLP
1020.33 1020.11 1020.01 1019.93 1019.63 1019.24 1019.02 1019.73 1020.14 1018.79 1018.42 1018.75 1019.08 1019.02 1018.03 1017.17 1017.01 1016.70 1016.74 1017.07 1017.63 1018.34 1019.31 1020.14 1020.86 1021.11 1020.50 1019.61 1019.36 1019.23 1018.91 1018.85 1018.00 1015.93 1014.82 1014.78 1014.92 1014.18 1013.23 1012.46 1011.88 1010.95 1010.56 1010.58
1020.97 1020.78 1020.60 1020.28 1019.83 1019.51 1019.87 1020.35 1020.57 1019.21 1019.26 1019.91 1019.70 1018.90 1018.32 1017.73 1017.08 1016.87 1016.78 1016.86 1017.17 1017.56 1018.22 1019.18 1019.48 1019.57 1018.97 1018.94 1019.05 1019.08 1018.79 1018.32 1017.63 1015.73 1014.94 1014.65 1014.66 1014.26 1013.42 1012.37 1011.94 1011.40 1010.81 1011.16
1021.20 1021.01 1020.90 1020.54 1019.97 1019.50 1019.87 1020.40 1020.88 1020.62 1020.20 1020.31 1020.07 1019.37 1018.72 1018.23 1017.57 1017.23 1017.03 1016.99 1016.92 1017.18 1017.59 1018.04 1018.60 1018.65 1018.54 1018.48 1018.60 1018.56 1018.72 1018.33 1017.61 1017.16 1016.48 1016.07 1015.19 1014.48 1013.82 1013.00 1012.38 1012.12 1011.65 1011.47
1021.31 1021.05 1020.82 1020.52 1019.97 1019.59 1019.95 1020.75 1021.55 1021.26 1021.43 1020.72 1020.49 1019.85 1019.05 1018.54 1018.21 1017.68 1017.37 1017.32 1017.27 1017.41 1017.68 1017.92 1018.32 1018.39 1018.32 1018.41 1018.25 1018.30 1018.53 1018.17 1017.10 1016.43 1015.83 1015.51 1015.15 1014.82 1014.21 1013.61 1013.14 1012.48 1012.35 1011.82
1021.26 1021.23 1021.07 1020.57 1019.85 1019.54 1020.51 1021.47 1021.65 1021.56 1021.43 1021.00 1020.80 1020.44 1019.83 1019.12 1018.65 1018.60 1018.00 1017.95 1017.81 1017.78 1018.09 1018.41 1018.52 1018.50 1018.45 1018.42 1018.29 1018.26 1018.31 1017.98 1017.08 1016.22 1015.49 1015.35 1015.15 1014.99 1014.63 1014.17 1013.62 1013.08 1012.52 1012.19
1021.66 1021.60 1021.20 1020.90 1020.24 1019.49 1020.49 1021.05 1021.25 1021.55 1021.70 1021.47 1021.18 1020.88 1020.19 1019.73 1019.22 1018.94 1018.73 1018.67 1018.58 1018.44 1018.56 1018.45 1018.26 1018.27 1018.25 1018.07 1018.19 1018.17 1018.20 1018.14 1017.51 1016.74 1015.32 1015.27 1015.44 1015.02 1014.83 1014.49 1014.14 1013.61 1013.11 1013.22
1021.81 1021.66 1021.46 1021.03 1020.53 1020.38 1020.94 1021.34 1021.49 1021.68 1022.07 1021.69 1021.37 1020.67 1020.29 1020.06 1019.89 1019.72 1019.16 1019.07 1019.10 1019.19 1018.68 1018.40 1018.14 1018.04 1017.86 1017.68 1017.56 1017.60 1017.81 1018.05 1017.81 1017.21 1016.23 1015.46 1015.05 1014.49 1014.40 1014.49 1014.27 1014.19 1013.87 1013.73
1021.67 1021.53 1021.37 1021.10 1020.93 1020.58 1020.99 1021.27 1021.71 1021.69 1021.84 1021.48 1021.11 1020.74 1020.39 1020.32 1020.13 1020.04 1019.84 1019.54 1019.45 1019.27 1019.07 1018.90 1018.48 1018.12 1017.87 1017.13 1017.05 1017.14 1017.44 1017.72 1017.92 1017.63 1017.06 1015.80 1014.57 1014.24 1014.27 1014.42 1014.63 1014.31 1014.41 1013.95
1021.69 1021.36 1021.28 1021.13 1020.95 1020.59 1020.83 1021.33 1021.40 1021.79 1021.89 1021.39 1020.76 1020.42 1020.31 1020.66 1020.67 1020.64 1019.97 1019.63 1019.46 1019.48 1019.52 1019.47 1019.29 1018.50 1017.60 1017.31 1016.83 1016.56 1016.99 1017.32 1018.20 1017.58 1017.08 1015.56 1013.98 1013.73 1013.95 1014.15 1014.79 1014.72 1014.45 1014.44
1021.84 1021.53 1021.20 1020.96 1020.91 1020.89 1021.06 1021.35 1021.44 1021.77 1022.02 1021.05 1020.53 1020.41 1020.15 1020.29 1020.60 1020.89 1020.47 1020.04 1019.90 1019.85 1020.16 1020.09 1019.57 1018.75 1017.78 1017.42 1016.99 1016.81 1017.00 1017.33 1017.70 1017.53 1016.77 1015.02 1013.43 1013.66 1013.92 1014.54 1015.43 1014.99 1015.05 1015.01
1021.55 1021.37 1021.30 1021.06 1021.04 1020.87 1020.99 1021.34 1021.03 1021.54 1021.82 1021.10 1020.75 1020.34 1020.28 1020.27 1020.41 1020.90 1020.68 1020.72 1020.53 1020.63 1020.87 1020.71 1019.96 1019.20 1018.18 1017.74 1016.91 1016.41 1016.71 1016.99 1017.06 1016.75 1016.12 1014.75 1013.66 1013.82 1014.06 1014.18 1014.56 1014.85 1015.07 1015.21
1021.52 1021.33 1021.05 1020.73 1020.62 1020.69 1020.77 1021.17 1020.95 1021.01 1021.45 1020.98 1020.64 1020.43 1020.28 1020.17 1020.11 1020.16 1020.56 1020.78 1020.89 1020.83 1021.06 1020.77 1020.32 1019.74 1018.90 1018.35 1017.70 1016.43 1016.35 1015.99 1015.99 1015.81 1014.55 1013.56 1013.35 1013.29 1013.18 1013.57 1014.15 1014.71 1014.87 1015.07
1021.24 1021.08 1020.84 1020.69 1020.60 1020.60 1020.46 1020.76 1021.05 1021.22 1021.69 1021.25 1021.10 1020.26 1020.18 1020.34 1020.47 1020.26 1020.34 1020.69 1020.62 1020.81 1020.89 1021.08 1020.76 1020.24 1019.37 1019.02 1017.88 1016.79 1015.99 1015.46 1015.43 1015.19 1013.78 1013.31 1013.16 1013.15 1013.19 1013.49 1013.97 1014.27 1014.56 1014.84
1020.67 1020.76 1020.75 1020.52 1020.39 1020.32 1020.47 1020.73 1020.82 1021.00 1021.32 1021.71 1020.80 1020.48 1020.32 1019.78 1020.27 1020.67 1020.72 1020.42 1020.53 1020.84 1020.97 1021.13 1020.91 1020.41 1019.05 1018.66 1017.89 1017.26 1015.75 1015.52 1015.03 1014.56 1013.65 1013.48 1012.99 1012.95 1013.03 1013.37 1013.71 1014.07 1014.37 1014.70
1020.27 1020.42 1020.27 1020.17 1020.01 1020.03 1020.36 1020.56 1020.39 1020.56 1021.08 1021.37 1020.84 1020.52 1020.36 1020.52 1020.47 1020.55 1020.90 1021.13 1021.01 1021.10 1021.31 1021.26 1020.82 1019.63 1019.15 1018.32 1017.81 1015.93 1014.62 1013.89 1014.02 1013.32 1012.34 1012.28 1012.23 1012.49 1012.89 1013.42 1013.75 1013.97 1014.31 1014.61
1019.81 1020.23 1020.25 1019.69 1019.05 1019.33 1020.47 1020.66 1020.59 1020.34 1020.67 1021.39 1021.53 1021.11 1020.80 1020.81 1020.86 1020.73 1020.80 1021.08 1021.39 1021.23 1021.13 1020.79 1019.77 1018.87 1018.94 1018.56 1017.23 1013.91 1013.28 1012.77 1012.30 1011.99 1011.72 1011.81 1011.65 1012.11 1012.84 1013.38 1013.78 1014.19 1014.64 1014.98
1019.50 1019.52 1019.69 1019.65 1019.72 1019.92 1020.42 1020.60 1020.54 1020.49 1020.89 1021.11 1021.29 1021.07 1020.83 1020.69 1020.91 1020.93 1020.87 1020.88 1021.11 1021.31 1020.97 1020.28 1019.71 1019.12 1018.65 1017.97 1015.75 1012.80 1012.13 1011.84 1011.85 1011.55 1011.71 1012.15 1012.11 1012.32 1012.71 1013.12 1013.77 1014.25 1014.86 1015.39
1019.14 1019.41 1019.55 1019.72 1020.01 1020.19 1020.28 1020.37 1020.19 1020.26 1020.75 1021.32 1021.63 1021.28 1021.22 1020.57 1020.85 1020.93 1020.57 1020.81 1021.02 1020.62 1020.34 1019.74 1019.34 1018.85 1018.35 1016.40 1012.78 1011.70 1011.63 1011.52 1011.44 1011.35 1011.26 1011.25 1011.72 1012.46 1013.07 1013.40 1014.08 1014.81 1015.39 1015.90
1018.91 1019.31 1019.55 1020.19 1020.37 1020.47 1020.30 1020.22 1020.25 1020.28 1020.75 1021.00 1021.52 1021.33 1020.86 1020.71 1020.79 1020.78 1020.65 1020.23 1020.50 1020.01 1019.72 1019.11 1018.88 1017.94 1016.46 1012.73 1011.56 1011.12 1010.77 1010.83 1010.87 1011.22 1011.37 1011.73 1012.05 1012.61 1013.11 1013.63 1014.34 1015.07 1015.89 1016.43
1018.54 1019.24 1019.77 1020.37 1020.61 1020.41 1020.50 1020.68 1020.71 1020.85 1020.80 1020.92 1020.58 1019.97 1020.28 1020.57 1020.91 1021.08 1021.33 1020.95 1020.13 1019.31 1017.96 1017.79 1017.45 1015.50 1013.16 1011.06 1009.23 1009.35 1009.86 1010.00 1010.46 1011.23 1011.64 1011.80 1012.26 1012.67 1013.13 1013.62 1014.19 1014.98 1015.86 1016.63
1018.51 1018.91 1019.47 1020.24 1020.27 1020.51 1020.63 1020.83 1021.01 1020.90 1020.74 1020.01 1019.44 1019.17 1019.66 1020.07 1020.56 1020.99 1020.68 1020.58 1020.37 1019.72 1017.35 1016.88 1015.96 1013.93 1010.35 1008.86 1008.57 1008.49 1008.77 1009.16 1009.56 1009.70 1010.40 1010.94 1011.59 1012.33 1013.08 1013.90 1014.55 1015.19 1016.01 1016.80
1017.18 1018.36 1019.31 1020.11 1020.63 1020.62 1020.60 1020.36 1020.57 1020.18 1019.31 1019.03 1019.17 1019.18 1019.14 1019.55 1019.70 1020.49 1020.80 1020.62 1020.18 1019.13 1017.89 1017.52 1014.77 1010.97 1008.32 1007.86 1007.66 1007.53 1007.68 1008.17 1008.87 1009.30 1010.07 1010.85 1011.44 1012.10 1012.99 1013.95 1014.87 1015.53 1016.23 1017.00
1017.55 1018.65 1019.17 1019.27 1019.90 1020.04 1019.68 1019.35 1019.26 1018.88 1018.00 1018.21 1018.56 1019.40 1019.14 1019.56 1019.75 1020.28 1020.79 1020.67 1019.61 1018.26 1018.21 1016.31 1013.25 1008.88 1007.50 1007.87 1007.76 1007.51 1007.60 1007.85 1008.38 1009.19 1009.81 1010.60 1011.47 1012.30 1013.11 1014.24 1015.01 1015.83 1016.76 1017.36
1017.09 1017.74 1018.50 1018.23 1017.56 1016.97 1016.34 1016.14 1016.49 1016.64 1017.06 1018.12 1019.01 1019.76 1019.53 1019.55 1019.80 1020.08 1020.60 1019.51 1019.21 1018.70 1017.89 1015.14 1010.73 1008.94 1008.53 1007.83 1007.69 1007.71 1007.92 1008.26 1008.67 1009.21 1010.05 1010.87 1011.62 1012.73 1013.55 1014.38 1015.16 1016.03 1016.99 1017.66
1016.29 1016.47 1015.79 1015.34 1014.96 1014.67 1014.67 1015.17 1015.56 1015.72 1016.09 1017.37 1018.84 1019.59 1019.98 1020.23 1020.11 1019.63 1019.81 1019.71 1018.82 1017.75 1015.29 1012.58 1010.67 1009.67 1009.05 1008.68 1008.22 1008.43 1008.74 1008.89 1009.23 1009.77 1010.45 1011.52 1012.25 1013.12 1014.18 1014.89 1015.56 1016.30 1017.14 1017.82
1015.18 1014.36 1013.79 1013.62 1014.31 1014.80 1014.98 1015.05 1015.52 1015.43 1015.83 1016.62 1017.74 1018.94 1019.61 1019.49 1019.12 1019.19 1018.46 1018.15 1016.76 1014.93 1013.39 1012.22 1011.30 1010.28 1009.75 1009.48 1009.43 1009.23 1009.62 1009.98 1010.30 1010.69 1011.16 1011.95 1012.90 1013.65 1014.42 1015.32 1015.97 1016.55 1017.10 1017.79
1013.07 1012.24 1012.13 1012.08 1012.78 1013.32 1013.91 1014.24 1014.53 1014.92 1015.64 1016.31 1017.01 1017.62 1017.28 1017.29 1017.50 1017.29 1016.44 1015.14 1013.72 1012.72 1012.09 1011.57 1011.01 1010.83 1010.24 1009.63 1009.58 1009.42 1009.80 1010.53 1010.98 1011.54 1011.96 1012.53 1013.45 1014.32 1015.11 1015.68 1016.34 1016.80 1017.29 1017.64
Thickness
5537 5534 5529 5526 5525 5525 5522 5513 5492 5514 5515 5496 5490 5478 5511 5514 5508 5507 5505 5503 5500 5498 5477 5454 5436 5437 5442 5469 5469 5461 5466 5450 5444 5481 5500 5489 5473 5488 5495 5503 5499 5493 5499 5497
5534 5531 5529 5529 5530 5529 5522 5510 5505 5517 5511 5481 5487 5512 5512 5510 5513 5508 5507 5507 5506 5506 5499 5474 5475 5466 5479 5476 5474 5466 5467 5456 5456 5476 5498 5500 5490 5485 5493 5499 5493 5500 5501 5499
5537 5534 5530 5530 5531 5532 5528 5521 5509 5504 5507 5502 5511 5514 5513 5507 5512 5513 5513 5511 5511 5510 5506 5498 5491 5492 5486 5483 5481 5484 5472 5466 5480 5463 5480 5480 5489 5486 5487 5496 5499 5499 5501 5496
5539 5538 5536 5532 5533 5535 5529 5518 5507 5513 5490 5505 5509 5509 5519 5515 5508 5513 5517 5513 5512 5509 5503 5497 5496 5492 5489 5486 5490 5485 5473 5472 5499 5498 5500 5498 5492 5492 5493 5492 5494 5501 5496 5497
5544 5539 5536 5537 5539 5536 5525 5514 5512 5509 5505 5515 5512 5509 5514 5518 5514 5505 5512 5511 5512 5506 5499 5494 5490 5490 5489 5489 5488 5461 5478 5480 5499 5503 5514 5505 5495 5496 5489 5497 5498 5501 5506 5502
5543 5540 5539 5537 5539 5543 5528 5522 5521 5514 5512 5508 5510 5503 5516 5516 5518 5515 5512 5506 5502 5503 5500 5498 5496 5492 5490 5494 5492 5484 5483 5472 5487 5466 5514 5511 5489 5498 5495 5501 5503 5502 5506 5503
5541 5540 5538 5539 5539 5537 5529 5523 5518 5515 5516 5510 5511 5520 5520 5516 5512 5507 5515 5507 5504 5502 5501 5500 5500 5496 5496 5497 5497 5494 5492 5488 5493 5474 5492 5479 5503 5512 5514 5508 5509 5506 5507 5511
5541 5540 5538 5538 5535 5535 5530 5523 5518 5514 5513 5515 5515 5520 5521 5515 5514 5511 5509 5509 5503 5500 5502 5498 5500 5504 5508 5509 5507 5500 5494 5495 5480 5479 5444 5501 5519 5518 5515 5508 5506 5511 5502 5508
5540 5540 5538 5537 5535 5536 5532 5524 5520 5514 5511 5514 5519 5522 5524 5506 5502 5499 5515 5512 5507 5505 5501 5498 5505 5493 5523 5518 5520 5513 5508 5499 5480 5493 5495 5501 5530 5525 5523 5519 5500 5506 5509 5505
5536 5535 5536 5537 5534 5531 5529 5523 5519 5511 5508 5512 5519 5514 5514 5514 5507 5499 5507 5512 5507 5506 5494 5496 5491 5505 5523 5511 5515 5512 5504 5497 5486 5490 5481 5511 5534 5526 5525 5515 5509 5508 5506 5505
5535 5534 5531 5530 5529 5528 5528 5522 5522 5513 5504 5509 5514 5516 5513 5510 5504 5500 5504 5502 5501 5494 5496 5493 5499 5506 5510 5512 5517 5528 5510 5491 5484 5498 5508 5499 5524 5525 5518 5518 5513 5510 5509 5508
5529 5528 5528 5528 5528 5525 5524 5521 5519 5515 5506 5509 5508 5511 5510 5511 5509 5502 5501 5501 5501 5497 5494 5496 5493 5503 5498 5505 5501 5526 5513 5517 5518 5512 5522 5533 5531 5536 5533 5527 5522 5520 5517 5517
5526 5524 5524 5523 5522 5520 5522 5518 5513 5509 5499 5499 5496 5504 5507 5504 5502 5503 5501 5496 5499 5499 5492 5489 5490 5496 5495 5498 5500 5528 5527 5525 5523 5526 5539 5538 5539 5542 5541 5535 5531 5527 5524 5523
5524 5520 5517 5517 5517 5517 5515 5511 5509 5504 5500 5491 5497 5498 5498 5503 5499 5494 5493 5496 5494 5492 5488 5488 5488 5495 5505 5500 5509 5509 5522 5524 5525 5525 5539 5541 5541 5540 5541 5539 5534 5532 5530 5527
5520 5516 5515 5514 5514 5511 5508 5505 5506 5503 5497 5491 5491 5492 5492 5489 5490 5489 5485 5482 5485 5483 5483 5483 5487 5495 5502 5501 5503 5506 5527 5533 5531 5535 5546 5549 5547 5544 5542 5537 5535 5533 5531 5529
5516 5509 5506 5508 5511 5508 5499 5496 5498 5498 5493 5477 5478 5483 5484 5481 5478 5480 5479 5475 5472 5474 5477 5481 5489 5501 5499 5493 5500 5539 5540 5543 5548 5556 5555 5553 5559 5547 5542 5538 5535 5533 5529 5526
5510 5507 5502 5499 5497 5496 5489 5487 5489 5488 5483 5476 5476 5479 5478 5476 5471 5467 5470 5469 5466 5464 5470 5478 5483 5488 5494 5492 5516 5546 5552 5551 5550 5555 5553 5554 5550 5545 5542 5540 5534 5530 5523 5518
5504 5499 5495 5490 5486 5483 5480 5479 5481 5481 5476 5470 5450 5469 5465 5471 5461 5461 5461 5462 5458 5463 5465 5473 5476 5480 5484 5503 5533 5549 5552 5555 5548 5548 5555 5555 5548 5541 5536 5532 5527 5521 5516 5511
5495 5489 5485 5478 5474 5472 5471 5472 5472 5472 5468 5466 5456 5450 5452 5460 5454 5453 5452 5454 5457 5459 5463 5467 5469 5478 5494 5536 5538 5540 5544 5546 5546 5543 5544 5540 5541 5536 5531 5529 5522 5516 5509 5505
5488 5481 5475 5466 5463 5461 5461 5458 5456 5455 5454 5452 5460 5458 5449 5447 5442 5439 5435 5438 5447 5436 5473 5468 5470 5493 5524 5537 5551 5552 5544 5544 5541 5533 5532 5532 5530 5531 5527 5525 5519 5514 5505 5497
5476 5471 5468 5458 5455 5451 5447 5450 5450 5449 5450 5454 5455 5450 5440 5440 5431 5426 5432 5420 5425 5420 5460 5471 5460 5491 5532 5542 5543 5549 5546 5544 5544 5547 5543 5536 5534 5527 5520 5513 5509 5503 5496 5489
5474 5465 5455 5446 5440 5437 5443 5446 5443 5446 5453 5443 5436 5435 5437 5433 5431 5415 5413 5411 5414 5420 5444 5441 5455 5515 5544 5541 5542 5545 5544 5543 5540 5536 5532 5526 5524 5520 5514 5506 5498 5493 5486 5480
5455 5447 5442 5440 5435 5431 5439 5438 5437 5435 5436 5431 5425 5418 5424 5419 5416 5405 5391 5403 5412 5423 5418 5444 5467 5527 5535 5529 5528 5533 5533 5538 5535 5528 5525 5520 5513 5508 5505 5495 5489 5481 5473 5468
5445 5442 5437 5438 5436 5447 5455 5449 5440 5440 5425 5416 5406 5392 5403 5407 5403 5391 5390 5395 5395 5403 5413 5435 5486 5503 5509 5512 5515 5519 5519 5521 5521 5519 5514 5509 5504 5494 5490 5485 5479 5471 5463 5457
5437 5435 5447 5446 5449 5442 5443 5436 5431 5425 5423 5413 5394 5382 5381 5379 5368 5389 5374 5385 5382 5393 5421 5448 5456 5475 5482 5489 5497 5498 5498 5500 5501 5500 5498 5490 5487 5483 5474 5470 5465 5460 5453 5447
5429 5439 5441 5443 5441 5423 5416 5414 5413 5405 5407 5392 5382 5362 5365 5359 5363 5371 5374 5354 5371 5410 5417 5423 5427 5445 5451 5459 5471 5477 5477 5478 5479 5480 5480 5476 5472 5468 5461 5455 5452 5448 5444 5438
5433 5442 5449 5440 5427 5430 5418 5405 5401 5398 5393 5374 5358 5360 5366 5353 5350 5370 5363 5373 5399 5407 5409 5410 5417 5429 5441 5447 5452 5458 5459 5456 5458 5459 5461 5459 5454 5449 5446 5444 5438 5435 5431 5426